This is the latest recevied weather packets stored in our database for station/object N8GD. If no packets are shown the sender has not sent any weather packets the latest 10 day(s).
| Time | Temp. | Humidity | Pressure | Rain* | Wind** | Luminosity | Snow |
|---|---|---|---|---|---|---|---|
| 1778105263 | 13.33° C | 61% | 1011.5 hPa | 0 mm | - | - | - |
| 1778104363 | 13.33° C | 64% | 1011.4 hPa | 0 mm | - | - | - |
| 1778104310 | 13.33° C | 64% | 1011.4 hPa | 0 mm | - | - | - |
| 1778103462 | 12.78° C | 64% | 1011.1 hPa | 0 mm | - | - | - |
| 1778102564 | 13.33° C | 65% | 1011.1 hPa | 0 mm | - | - | - |
| 1778101662 | 13.33° C | 65% | 1011 hPa | 0 mm | - | - | - |
| 1778100764 | 13.33° C | 65% | 1010.8 hPa | 0 mm | - | - | - |
| 1778100706 | 13.33° C | 64% | 1010.8 hPa | 0 mm | - | - | - |
| 1778099863 | 13.33° C | 66% | 1010.8 hPa | 0 mm | - | - | - |
| 1778098962 | 12.78° C | 66% | 1010.7 hPa | 0 mm | - | - | - |
| 1778098903 | 12.78° C | 66% | 1010.7 hPa | 0 mm | - | - | - |
| 1778098062 | 12.78° C | 67% | 1010.9 hPa | 0 mm | - | - | - |
| 1778097164 | 12.78° C | 68% | 1010.8 hPa | 0 mm | - | - | - |
| 1778096263 | 12.78° C | 69% | 1010.8 hPa | 0 mm | - | - | - |
| 1778095363 | 12.78° C | 69% | 1010.8 hPa | 0 mm | - | - | - |
| 1778094462 | 12.78° C | 72% | 1010.8 hPa | 0 mm | - | - | - |
| 1778093563 | 12.78° C | 70% | 1010.8 hPa | 0 mm | - | - | - |
| 1778093515 | 12.78° C | 71% | 1010.8 hPa | 0 mm | - | - | - |
| 1778092663 | 12.78° C | 72% | 1010.8 hPa | 0 mm | - | - | - |
| 1778091764 | 12.78° C | 74% | 1010.4 hPa | 0 mm | - | - | - |
| 1778091709 | 12.78° C | 74% | 1010.4 hPa | 0 mm | - | - | - |
| 1778090862 | 12.78° C | 76% | 1010.7 hPa | 0 mm | - | - | - |
| 1778089963 | 11.67° C | 80% | 1010.7 hPa | 0 mm | - | - | - |
| 1778089913 | 11.67° C | 80% | 1010.7 hPa | 0 mm | - | - | - |
| 1778089064 | 11.67° C | 81% | 1010.7 hPa | 0 mm | - | - | - |
* Rain latest hour (hover to see other rain measurements)
** Current wind speed in m/s (hover to see current wind gust speed)